Météo par heure à Abadiânia

Ce jour, 29 Novembre, Dimanche

Heure Température Précipitation Vent Pression Humidité
00:00 +19°C° 0 mm 2 m/s 677 mmHg 86%
01:00 +19°C° 0 mm 2 m/s 676 mmHg 86%
02:00 +18°C° 0 mm 2 m/s 676 mmHg 86%
03:00 +19°C° 0 mm 1 m/s 675 mmHg 85%
04:00 +18°C° 0 mm 2 m/s 675 mmHg 86%
05:00 +17°C° 0 mm 2 m/s 676 mmHg 87%
06:00 +17°C° 0 mm 2 m/s 676 mmHg 88%
07:00 +19°C° 0 mm 3 m/s 677 mmHg 82%
08:00 +21°C° 0 mm 4 m/s 678 mmHg 77%
09:00 +23°C° 0 mm 4 m/s 679 mmHg 71%
10:00 +26°C° 0 mm 4 m/s 679 mmHg 67%
11:00 +27°C° 0 mm 4 m/s 679 mmHg 62%
12:00 +28°C° 0 mm 3 m/s 679 mmHg 58%
13:00 +28°C° 0 mm 3 m/s 678 mmHg 58%
14:00 +28°C° 0 mm 3 m/s 678 mmHg 58%
15:00 +28°C° 0 mm 3 m/s 677 mmHg 58%
16:00 +27°C° 0.1 mm 3 m/s 677 mmHg 64%
17:00 +26°C° 0.1 mm 2 m/s 676 mmHg 70%
18:00 +25°C° 0.1 mm 2 m/s 676 mmHg 76%
19:00 +23°C° 0 mm 2 m/s 676 mmHg 80%
20:00 +21°C° 0 mm 2 m/s 676 mmHg 83%
21:00 +20°C° 0 mm 2 m/s 677 mmHg 87%
22:00 +19°C° 0 mm 2 m/s 677 mmHg 88%
23:00 +19°C° 0 mm 2 m/s 676 mmHg 89%

Demain, 30 Novembre, Lundi

Heure Température Précipitation Vent Pression Humidité
00:00 +18°C° 0 mm 2 m/s 676 mmHg 90%
01:00 +18°C° 0 mm 2 m/s 676 mmHg 90%
02:00 +18°C° 0 mm 2 m/s 675 mmHg 91%
03:00 +17°C° 0 mm 2 m/s 675 mmHg 91%
04:00 +17°C° 0 mm 2 m/s 675 mmHg 91%
05:00 +18°C° 0 mm 1 m/s 675 mmHg 92%
06:00 +18°C° 0 mm 1 m/s 675 mmHg 92%
07:00 +19°C° 0 mm 2 m/s 676 mmHg 83%
08:00 +22°C° 0 mm 3 m/s 677 mmHg 73%
09:00 +25°C° 0 mm 4 m/s 678 mmHg 64%
10:00 +26°C° 0 mm 3 m/s 678 mmHg 60%
11:00 +27°C° 0 mm 3 m/s 678 mmHg 56%
12:00 +29°C° 0 mm 3 m/s 678 mmHg 53%
13:00 +29°C° 0 mm 3 m/s 677 mmHg 52%
14:00 +28°C° 0 mm 2 m/s 676 mmHg 52%
15:00 +28°C° 0 mm 2 m/s 676 mmHg 51%
16:00 +27°C° 0 mm 2 m/s 675 mmHg 56%
17:00 +26°C° 0 mm 1 m/s 675 mmHg 62%
18:00 +25°C° 0 mm 1 m/s 675 mmHg 67%
19:00 +24°C° 0 mm 1 m/s 675 mmHg 69%
20:00 +23°C° 0 mm 1 m/s 675 mmHg 72%
21:00 +22°C° 0 mm 1 m/s 675 mmHg 74%
22:00 +21°C° 0 mm 1 m/s 675 mmHg 77%
23:00 +21°C° 0 mm 1 m/s 675 mmHg 79%

Après-demain, 1 Décembre, Mardi

Heure Température Précipitation Vent Pression Humidité
00:00 +20°C° 0 mm 1 m/s 675 mmHg 81%
01:00 +20°C° 0 mm 1 m/s 675 mmHg 81%
02:00 +20°C° 0 mm 1 m/s 674 mmHg 81%
03:00 +19°C° 0 mm 1 m/s 674 mmHg 81%
04:00 +19°C° 0 mm 1 m/s 674 mmHg 83%
05:00 +19°C° 0 mm 1 m/s 674 mmHg 84%
06:00 +19°C° 0 mm 1 m/s 675 mmHg 85%
07:00 +21°C° 0 mm 2 m/s 675 mmHg 77%
08:00 +24°C° 0 mm 2 m/s 676 mmHg 68%
09:00 +27°C° 0 mm 3 m/s 677 mmHg 59%
10:00 +28°C° 0 mm 3 m/s 677 mmHg 54%
11:00 +29°C° 0 mm 3 m/s 677 mmHg 49%
12:00 +30°C° 0 mm 2 m/s 677 mmHg 44%
13:00 +30°C° 0 mm 2 m/s 676 mmHg 47%
14:00 +30°C° 0 mm 2 m/s 676 mmHg 49%
15:00 +29°C° 0 mm 2 m/s 675 mmHg 52%
16:00 +28°C° 0 mm 2 m/s 675 mmHg 56%
17:00 +27°C° 0 mm 1 m/s 674 mmHg 61%
18:00 +26°C° 0 mm 1 m/s 674 mmHg 66%
19:00 +25°C° 0 mm 1 m/s 674 mmHg 68%
20:00 +23°C° 0 mm 1 m/s 674 mmHg 71%
21:00 +22°C° 0 mm 1 m/s 674 mmHg 74%
22:00 +22°C° 0 mm 1 m/s 674 mmHg 75%
23:00 +21°C° 0 mm 1 m/s 674 mmHg 75%

2 Décembre, Mercredi

Heure Température Précipitation Vent Pression Humidité
00:00 +21°C° 0 mm 1 m/s 674 mmHg 76%
01:00 +21°C° 0 mm 1 m/s 674 mmHg 77%
02:00 +20°C° 0 mm 1 m/s 673 mmHg 78%
03:00 +20°C° 0 mm 1 m/s 673 mmHg 80%
04:00 +20°C° 0 mm 1 m/s 673 mmHg 81%
05:00 +20°C° 0 mm 1 m/s 673 mmHg 81%
06:00 +20°C° 0 mm 1 m/s 674 mmHg 82%
07:00 +23°C° 0 mm 1 m/s 675 mmHg 74%
08:00 +25°C° 0 mm 2 m/s 676 mmHg 65%
09:00 +28°C° 0 mm 2 m/s 677 mmHg 56%
10:00 +29°C° 0 mm 2 m/s 677 mmHg 52%
11:00 +30°C° 0 mm 2 m/s 677 mmHg 48%
12:00 +31°C° 0 mm 2 m/s 677 mmHg 44%
13:00 +30°C° 0 mm 2 m/s 676 mmHg 48%
14:00 +29°C° 0 mm 2 m/s 676 mmHg 52%
15:00 +29°C° 0 mm 2 m/s 675 mmHg 56%
16:00 +28°C° 0 mm 2 m/s 675 mmHg 61%
17:00 +27°C° 0 mm 2 m/s 674 mmHg 65%
18:00 +26°C° 0 mm 2 m/s 674 mmHg 69%
19:00 +24°C° 0 mm 1 m/s 674 mmHg 72%
20:00 +23°C° 0 mm 1 m/s 674 mmHg 74%
21:00 +22°C° 0 mm 1 m/s 674 mmHg 76%
22:00 +22°C° 0 mm 1 m/s 674 mmHg 76%
23:00 +22°C° 0 mm 1 m/s 674 mmHg 77%

3 Décembre, Jeudi

Heure Température Précipitation Vent Pression Humidité
00:00 +21°C° 0 mm 1 m/s 674 mmHg 77%
01:00 +21°C° 0 mm 1 m/s 674 mmHg 78%
02:00 +21°C° 0 mm 1 m/s 673 mmHg 78%
03:00 +21°C° 0 mm 1 m/s 673 mmHg 79%
04:00 +20°C° 0 mm 1 m/s 673 mmHg 79%
05:00 +20°C° 0 mm 1 m/s 674 mmHg 80%
06:00 +20°C° 0 mm 1 m/s 674 mmHg 80%
07:00 +23°C° 0 mm 1 m/s 675 mmHg 71%
08:00 +26°C° 0 mm 2 m/s 676 mmHg 62%
09:00 +28°C° 0 mm 3 m/s 677 mmHg 53%
10:00 +29°C° 0 mm 3 m/s 677 mmHg 51%
11:00 +30°C° 0 mm 3 m/s 677 mmHg 48%
12:00 +32°C° 0 mm 4 m/s 676 mmHg 45%
13:00 +31°C° 0 mm 3 m/s 676 mmHg 47%
14:00 +30°C° 0 mm 3 m/s 675 mmHg 48%
15:00 +30°C° 0 mm 3 m/s 675 mmHg 50%
16:00 +29°C° 0.1 mm 2 m/s 674 mmHg 57%
17:00 +27°C° 0.1 mm 2 m/s 674 mmHg 64%
18:00 +26°C° 0.1 mm 1 m/s 674 mmHg 71%
19:00 +25°C° 0 mm 1 m/s 674 mmHg 73%
20:00 +24°C° 0 mm 1 m/s 674 mmHg 74%
21:00 +21°C° 0 mm 0 m/s 675 mmHg 76%
22:00 +22°C° 0 mm 1 m/s 675 mmHg 76%
23:00 +22°C° 0 mm 1 m/s 675 mmHg 77%

4 Décembre, Vendredi

Heure Température Précipitation Vent Pression Humidité
00:00 +22°C° 0 mm 1 m/s 675 mmHg 78%
01:00 +22°C° 0 mm 1 m/s 674 mmHg 77%
02:00 +21°C° 0 mm 1 m/s 674 mmHg 77%
03:00 +19°C° 0 mm 0 m/s 674 mmHg 76%
04:00 +19°C° 0 mm 0 m/s 674 mmHg 77%
05:00 +19°C° 0 mm 0 m/s 674 mmHg 77%
06:00 +19°C° 0 mm 0 m/s 674 mmHg 77%
07:00 +24°C° 0 mm 1 m/s 675 mmHg 69%
08:00 +26°C° 0 mm 1 m/s 677 mmHg 61%
09:00 +29°C° 0 mm 1 m/s 678 mmHg 53%
10:00 +30°C° 0 mm 2 m/s 677 mmHg 51%
11:00 +30°C° 0 mm 2 m/s 677 mmHg 48%
12:00 +31°C° 0 mm 2 m/s 677 mmHg 46%
13:00 +29°C° 0.1 mm 2 m/s 676 mmHg 53%
14:00 +28°C° 0.1 mm 2 m/s 675 mmHg 59%
15:00 +26°C° 0.1 mm 2 m/s 674 mmHg 66%
16:00 +27°C° 0 mm 2 m/s 674 mmHg 66%
17:00 +27°C° 0 mm 1 m/s 674 mmHg 66%
18:00 +27°C° 0 mm 1 m/s 674 mmHg 66%
19:00 +26°C° 0 mm 1 m/s 674 mmHg 68%
20:00 +24°C° 0 mm 1 m/s 674 mmHg 70%
21:00 +21°C° 0 mm 0 m/s 675 mmHg 72%
22:00 +21°C° 0 mm 0 m/s 675 mmHg 74%
23:00 +20°C° 0 mm 0 m/s 675 mmHg 75%
Voir plus

Nous avons besoin de votre consentement

Meteoprog et ses fournisseurs de services peuvent stocker et accéder à des données personnelles telles que des cookies, des identifiants d'appareils ou d'autres technologies similaires sur votre appareil et traiter ces données pour personnaliser le contenu et les publicités, ainsi que pour fournir des fonctionnalités de médias sociaux et analyser le trafic.

  • Stocker et/ou accéder à des informations sur votre appareil

    Des cookies, des identifiants d'appareils ou d'autres informations peuvent être stockés ou accessibles sur votre appareil aux fins indiquées ci-dessus.

  • Annonces et contenus personnalisés, mesure des annonces et des contenus, connaissance de l'audience et développement de produits

    Les annonces et le contenu peuvent être personnalisés en fonction d'un profil. D'autres données peuvent être ajoutées pour mieux personnaliser les annonces et le contenu. Les performances des publicités et du contenu peuvent être mesurées. Il est possible d'obtenir des informations sur le public qui a vu les publicités et le contenu. Ces données peuvent être utilisées pour développer ou améliorer l'expérience de l'utilisateur, les systèmes et les logiciels.

En cliquant sur "J'accepte", vous autorisez l'utilisation de cookies, des identifiants d'appareils, des balises web ou d'autres technologies similaires. Vos paramètres peuvent être modifiés dans le navigateur de votre appareil.

Dans certains cas, des intérêts légitimes peuvent être invoqués plutôt qu'un consentement. Vous pouvez en savoir plus à ce sujet dans notre Politique de confidentialité et de cookies.